Shaw, MS

9:00 AM CDT on March 29, 2015 (GMT -0500)
Cleveland Municipal | | Change Station
CLOSE
Current Station
Airport
Location: Cleveland Municipal Airport,
Elevation: 138 ft
Nearby Weather Stations
Active Advisory: Flood Advisory

Elev 138 ft 33.76 °N, 90.76 °W | Updated 5 minutes ago

Overcast
Overcast
46 °F
Feels Like 40 °F
N
14
Wind Variable Wind from SE
Gusts 21 mph

Today
High -- | Low -- °F
--% Chance of Precip.
Yesterday
High -- | Low -- °F
Precip. -- in
6:55 AM 7:21 PM
Waxing Gibbous, 71% visible
Pressure 30.24 in
Visibility 10.0 miles
Clouds Overcast 2400 ft
Windchill 40 °F
Dew Point 35 °F
Humidity 65%
Rainfall 0.00 in
Snow Depth Not available.
UV 1 out of 12
Pollen 10.60 out of 12
Air Quality Not available.
Flu Activity Not available.
METAR KRNV 291355Z AUTO 14012G18KT 10SM OVC024 08/02 A3024 RMK AO2 T00800017

More Conditions Fewer Conditions

Pressure 30.24 in
Visibility 10.0 miles
Clouds Overcast 2400 ft
Windchill 40 °F
Dew Point 35 °F
Humidity 65%
Rainfall 0.00 in
Snow Depth Not available.
UV 1 out of 12
Pollen 10.60 out of 12
Air Quality Not available.
Flu Activity Not available.
METAR KRNV 291355Z AUTO 14012G18KT 10SM OVC024 08/02 A3024 RMK AO2 T00800017

More Conditions Fewer Conditions

10-Day Weather Forecast

Almanac

Astronomy

Mar. 29, 2015 Rise Set
Actual Time
Civil Twilight
Nautical Twilight
Astronomical Twilight
Moon
Length of Visible Light
Length of Day
Tomorrow will be .
, % of the Moon is Illuminated

Today's Extremes

State Highs State Lows

Community

WunderPhotos

Upload Photos

1,809,239 photos uploaded!

WunderBlogs® & News

Nearby

Air Quality

  Air Quality AQ Index Pollutant
Not available.

Snow Depth

Station Depth Elevation

Earthquake Activity

City Distance Mag. Time & Date
Minimum magnitude displayed is 2.5.

Coastal Water Temperatures

Place Temperature

Stations

Nearby Weather Stations

Station Location Temp. Windchill Dew Point Humidity Wind Precip. Elev Updated Type
                   
Flood Advisory
Statement as of 10:40 AM CDT on March 28, 2015

The Flood Advisory continues for
the Mississippi River near Arkansas City.
* Until Tuesday afternoon.
* At 10:00 am Saturday the stage was 35.2 feet.
* Flood stage is 37.0 feet.
* Forecast... the river will crest at 35.2 feet within the next 24 hours
and then begin falling tomorrow afternoon.
* Impact... at 35.0 feet... the Road to Donaldson Point is cut off.


              Flood observed forecast 7 am crest
location stg stg day time sun Mon Tue crest time date

Lower Mississippi River
Arkansas City 37 35.2 Sat 10 am 35.2 35.0 34.8 near crest




Lat... Lon 3340 9128 3357 9128 3413 9108 3412 9066
      3358 9106 3340 9105